星链-3645 (STARLINK-3645 )

导读 | 豆包AI

STARLINK-3645是美国太空探索技术公司(SpaceX)星链卫星星座的一员,于2022年3月9日发射入轨。星链项目旨在构建全球卫星互联网星座,为全球偏远地区、海洋等地面网络覆盖薄弱区域提供高速宽带互联网接入服务,STARLINK-3645承担了补充星座网络容量、完善全球覆盖范围的任务。

Basic Information
目录编号:
51986
目录名称:
STARLINK-3645
国际标识:
2022-025AG
轨道中心:
EARTH
卫星名称:
星链-3645
卫星全名:
星链-3645 (STARLINK-3645 )
卫星状态:
在轨 (已飞行1514 天)
发射日期:
2022-03-09 UTC
国别 :
美国 (US)
星等 :
--
Orbit Information
数据来源 国际轨道数据 AOE轨道数据
星历时间 2026-04-30T18:02:58+0800
14小时前
查看轨道信息
2026-04-28T09:00:00+0800
2天前
查看轨道信息
半长轴 6917.893km 6917.871km
偏心率 0.000119 0.0001575
轨道倾角 53.217° 53.213°
近地点辐角 84.031° 74.663°
升交点赤经 166.747° 177.422°
平近点角 276.081° 326.686°
近地点 538.932km 538.644km
远地点 540.58km 540.824km
周期 95.438分钟 95.437分钟
每日圈数 15.08836 15.088432
Detailed Information
固有亮度:
5
最大亮度:
2.5
卫星平台:
Starlink v1.5
覆盖范围:
全球
运营商:
太空探索技术公司
运营商所在国:
美国
制造商(研发单位):
太空探索技术公司
制造商所在国:
美国
使用方式:
暂无
Satellite Introduction
星链(Starlink)计划是由太空探索技术公司(SpaceX)提出的一个巨型低轨卫星互联网星座项目,计划在2019年至2024年间在太空搭建由约1.2万颗卫星组成的“星链”网络,其中1584颗将部署在地球上空550千米处的近地轨道,并从2020年开始工作。该卫星仍在工作。
2D Orbit Map
3D Orbit Map
Orbit Altitude Analysis Chart
Orbit Inclination Analysis Chart
Orbit Comprehensive Analysis Chart
View Comprehensive Chart